Flag for Estonia Weather past 2 weeks in Kohtla-Järve, Estonia

Now
51 °F

Passing clouds.


Feels Like: 51 °F
Forecast: 54 / 62 °F
Wind: 1 mph from West

Location: Johvi

Current Time: Jul 31, 2015 at 12:27:16 AM

Latest Report: Jul 30, 2015 at 11:00 PM


Visibility: 9 mi

Pressure: 29.59 "Hg

Humidity: 96%

Dew point: 50 °F

Location of Kohtla-JärveLocation

Historic Weather in Kohtla-Järve — Graph

°F

Kohtla-Järve temperature yesterday

Maximum temperature yesterday: 64 °F (at 1:00 PM)
Minimum temperature yesterday: 51 °F (at 11:00 PM)
Average temperature yesterday: 58 °F

Past Weeks' High & Low Weather Summary

 TemperatureHumidityPressure
High74 °F (Jul 26, 3:00 PM)99% (Jul 18, 1:00 AM)29.99 "Hg (Jul 18, 1:00 AM)
Low44 °F (Jul 18, 4:00 AM)38% (Jul 21, 1:00 PM)29.50 "Hg (Jul 29, 9:00 AM)
Average60 °F78%29.73 "Hg
* Reported Jul 15 11:00 PM — Jul 30 11:00 PM, Kohtla-Järve, Weather by CustomWeather, © 2015

Note: Actual official high and low records may vary slightly from our data, if they occured in-between our weather recording intervals... More about our weather records

Advertising

Kohtla-Järve weather history for previous 24 hours

 ConditionsComfort  
Time TempWeatherWind HumidityBarometerVisibility
11:00 PM
Thu, Jul 30
51 °FPassing clouds.1 mph96%29.59 "Hg9 mi
10:00 PM53 °FLight rain. Overcast.3 mph92%29.59 "Hg22 mi
9:00 PM56 °FOvercast.3 mph83%29.58 "Hg31 mi
8:00 PM58 °FPartly sunny.5 mph76%29.57 "Hg28 mi
7:00 PM60 °FScattered clouds.5 mph73%29.57 "Hg28 mi
6:00 PM60 °FPartly sunny.5 mph74%29.57 "Hg22 mi
5:00 PM57 °FRain. Overcast.3 mph90%29.57 "Hg4 mi
4:00 PM62 °FOvercast.5 mph79%29.56 "Hg22 mi
3:00 PM56 °FRain. Overcast.5 mph94%29.57 "Hg6 mi
2:00 PM62 °FOvercast.5 mph70%29.54 "Hg22 mi
1:00 PM64 °FPartly sunny.8 mph59%29.54 "Hg22 mi
12:00 PM61 °FOvercast.7 mph70%29.56 "Hg22 mi
11:00 AM62 °FOvercast.7 mph71%29.56 "Hg25 mi
10:00 AM63 °FPassing clouds.7 mph70%29.57 "Hg22 mi
9:00 AM61 °FPassing clouds.5 mph83%29.57 "Hg19 mi
8:00 AM58 °FPartly sunny.6 mph90%29.58 "Hg16 mi
7:00 AM56 °FPartly sunny.5 mph96%29.58 "Hg9 mi
5:00 AM55 °FOvercast.5 mph96%29.59 "Hg7 mi
4:00 AM56 °FLow clouds.5 mph96%29.59 "Hg7 mi
3:00 AM55 °FPassing clouds.3 mph96%29.58 "Hg7 mi
2:00 AM57 °FLow clouds.5 mph94%29.58 "Hg10 mi
1:00 AM57 °FOvercast.3 mph94%29.57 "Hg10 mi
12:00 AM56 °FOvercast.2 mph94%29.57 "Hg6 mi
Weather by CustomWeather, © 2015

See weather overviewHow to use our weather pages